Starlink 35586

operational
NORAD ID: 66159 Int'l Des: 2025-240 Owner: SPXS Country: US Constellation: starlink
LEOCIRCULAR

About Starlink 35586

Description loading...

Live Position

Loading 3D Globe...

Upcoming Passes

Altitude History

Altitude vs Time

uPlot chart will show altitude changes over time

Two-Line Element Set

1 66159U 25240P 25318.83334491 .00024395 00000-0 44545-3 0 9992
2 66159 53.1594 238.2256 0001354 89.0616 8.0993 15.49300005 4412
Epoch: Nov 14, 2025 • Age: 7 hours

Current Status

Altitude 433.8 km
Velocity 7.65 km/s
Sub-Earth Point -42.78°S, 4.05°E
Launch Date Oct 25, 2025
Age 20 days
Type internet

Technical Details

Classification Payload
Mass 575.00 kg
Dry Mass 530.00 kg
Total Mass 575.00 kg
Length 0.30 m
Diameter 4.10 m
Span 29.00 m
Shape Box + pan
Manufacturer SPXS
Bus Type Starlink V2MO
Phase Status In Orbit
Owner/State SPXS/US

Large Constellations

Loading constellations...